Time,TemperatureF,DewpointF,PressureIn,WindDirection,WindDirectionDegrees,WindSpeedMPH,WindSpeedGustMPH,Humidity,HourlyPrecipIn,Conditions,Clouds,dailyrainin,SolarRadiationWatts/m^2,SoftwareType,DateUTC
2013-08-19 00:03:00,53.0,52.0,-100.00,WSW,251,0.0,3.0,98,0.00,,,0.00,0.000000,,2013-08-19 04:03:00,
2013-08-19 00:12:00,53.0,52.0,-100.00,WSW,251,0.0,3.0,98,0.00,,,0.00,0.000000,,2013-08-19 04:12:00,
2013-08-19 00:23:00,53.0,52.0,-100.00,WSW,251,0.0,3.0,98,0.00,,,0.00,0.000000,,2013-08-19 04:23:00,
2013-08-19 01:22:00,51.0,51.0,-100.00,ESE,105,1.0,2.0,99,0.00,,,0.00,0.000000,,2013-08-19 05:22:00,
2013-08-19 01:52:00,50.0,50.0,-100.00,ESE,122,1.0,3.0,99,0.00,,,0.00,0.000000,,2013-08-19 05:52:00,
2013-08-19 02:02:00,50.0,50.0,-100.00,ESE,122,1.0,3.0,99,0.00,,,0.00,0.000000,,2013-08-19 06:02:00,
2013-08-19 02:11:00,50.0,50.0,-100.00,ESE,122,1.0,3.0,99,0.00,,,0.00,0.000000,,2013-08-19 06:11:00,
2013-08-19 02:21:00,50.0,50.0,-100.00,ESE,122,1.0,3.0,99,0.00,,,0.00,0.000000,,2013-08-19 06:21:00,
2013-08-19 02:52:00,48.0,48.0,-100.00,SE,131,0.0,2.0,99,0.00,,,0.00,0.000000,,2013-08-19 06:52:00,
2013-08-19 03:01:00,48.0,48.0,-100.00,SE,131,0.0,2.0,99,0.00,,,0.00,0.000000,,2013-08-19 07:01:00,
2013-08-19 03:12:00,48.0,48.0,-100.00,SE,131,0.0,2.0,99,0.00,,,0.00,0.000000,,2013-08-19 07:12:00,
2013-08-19 03:21:00,48.0,48.0,-100.00,SE,131,0.0,2.0,99,0.00,,,0.00,0.000000,,2013-08-19 07:21:00,
2013-08-19 03:52:00,47.0,47.0,-100.00,SSW,193,0.0,2.0,99,0.00,,,0.00,0.000000,,2013-08-19 07:52:00,
2013-08-19 04:02:00,47.0,47.0,-100.00,SSW,193,0.0,2.0,99,0.00,,,0.00,0.000000,,2013-08-19 08:02:00,
2013-08-19 04:11:00,47.0,47.0,-100.00,SSW,193,0.0,2.0,99,0.00,,,0.00,0.000000,,2013-08-19 08:11:00,
2013-08-19 04:21:00,47.0,47.0,-100.00,SSW,193,0.0,2.0,99,0.00,,,0.00,0.000000,,2013-08-19 08:21:00,
2013-08-19 04:52:00,46.0,46.0,-100.00,NW,311,0.0,2.0,99,0.00,,,0.00,0.000000,,2013-08-19 08:52:00,
2013-08-19 05:01:00,46.0,46.0,-100.00,NW,311,0.0,2.0,99,0.00,,,0.00,0.000000,,2013-08-19 09:01:00,
2013-08-19 05:11:00,46.0,46.0,-100.00,NW,311,0.0,2.0,99,0.00,,,0.00,0.000000,,2013-08-19 09:11:00,
2013-08-19 05:22:00,46.0,46.0,-100.00,NW,311,0.0,2.0,99,0.00,,,0.00,0.000000,,2013-08-19 09:22:00,
2013-08-19 05:53:00,45.0,45.0,-100.00,ESE,118,1.0,3.0,99,0.00,,,0.00,0.000000,,2013-08-19 09:53:00,
2013-08-19 06:03:00,45.0,45.0,-100.00,ESE,118,1.0,3.0,99,0.00,,,0.00,0.000000,,2013-08-19 10:03:00,
2013-08-19 06:12:00,45.0,45.0,-100.00,ESE,118,1.0,3.0,99,0.00,,,0.00,0.000000,,2013-08-19 10:12:00,
2013-08-19 06:23:00,45.0,45.0,-100.00,ESE,118,1.0,3.0,99,0.00,,,0.00,0.000000,,2013-08-19 10:23:00,
2013-08-19 06:52:00,45.0,45.0,-100.00,ESE,103,0.0,3.0,99,0.00,,,0.00,8.000000,,2013-08-19 10:52:00,
2013-08-19 07:02:00,45.0,45.0,-100.00,ESE,103,0.0,3.0,99,0.00,,,0.00,8.000000,,2013-08-19 11:02:00,
2013-08-19 07:12:00,45.0,45.0,-100.00,ESE,103,0.0,3.0,99,0.00,,,0.00,8.000000,,2013-08-19 11:12:00,
2013-08-19 07:22:00,45.0,45.0,-100.00,ESE,103,0.0,3.0,99,0.00,,,0.00,8.000000,,2013-08-19 11:22:00,
2013-08-19 07:52:00,49.0,48.0,-100.00,NNW,339,1.0,3.0,98,0.00,,,0.00,72.000000,,2013-08-19 11:52:00,
2013-08-19 08:02:00,49.0,48.0,-100.00,NNW,339,1.0,3.0,98,0.00,,,0.00,72.000000,,2013-08-19 12:02:00,
2013-08-19 08:11:00,49.0,48.0,-100.00,NNW,339,1.0,3.0,98,0.00,,,0.00,72.000000,,2013-08-19 12:11:00,
2013-08-19 08:21:00,49.0,48.0,-100.00,NNW,339,1.0,3.0,98,0.00,,,0.00,72.000000,,2013-08-19 12:21:00,
2013-08-19 08:52:00,56.0,53.0,-100.00,WNW,300,1.0,3.0,91,0.00,,,0.00,210.000000,,2013-08-19 12:52:00,
2013-08-19 09:03:00,56.0,53.0,-100.00,WNW,300,1.0,3.0,91,0.00,,,0.00,210.000000,,2013-08-19 13:03:00,
2013-08-19 09:13:00,56.0,53.0,-100.00,WNW,300,1.0,3.0,91,0.00,,,0.00,210.000000,,2013-08-19 13:13:00,
2013-08-19 09:22:00,56.0,53.0,-100.00,WNW,300,1.0,3.0,91,0.00,,,0.00,210.000000,,2013-08-19 13:22:00,
2013-08-19 10:11:00,66.0,59.0,-100.00,WNW,300,2.0,4.0,77,0.00,,,0.00,395.000000,,2013-08-19 14:11:00,
2013-08-19 10:22:00,66.0,59.0,-100.00,WNW,300,2.0,4.0,77,0.00,,,0.00,395.000000,,2013-08-19 14:22:00,
2013-08-19 10:52:00,73.0,59.0,-100.00,East,84,2.0,4.0,62,0.00,,,0.00,548.000000,,2013-08-19 14:52:00,
2013-08-19 11:01:00,73.0,59.0,-100.00,East,84,2.0,4.0,62,0.00,,,0.00,548.000000,,2013-08-19 15:01:00,
2013-08-19 11:11:00,73.0,59.0,-100.00,East,84,2.0,4.0,62,0.00,,,0.00,548.000000,,2013-08-19 15:11:00,
2013-08-19 11:22:00,73.0,59.0,-100.00,East,84,2.0,4.0,62,0.00,,,0.00,548.000000,,2013-08-19 15:22:00,
2013-08-19 11:54:00,76.0,59.0,-100.00,WNW,285,4.0,10.0,56,0.00,,,0.00,674.000000,,2013-08-19 15:54:00,
2013-08-19 12:05:00,76.0,59.0,-100.00,WNW,285,4.0,10.0,56,0.00,,,0.00,674.000000,,2013-08-19 16:05:00,
2013-08-19 12:13:00,76.0,59.0,-100.00,WNW,285,4.0,10.0,56,0.00,,,0.00,674.000000,,2013-08-19 16:13:00,
2013-08-19 12:23:00,76.0,59.0,-100.00,WNW,285,4.0,10.0,56,0.00,,,0.00,674.000000,,2013-08-19 16:23:00,
2013-08-19 12:25:00,77.0,-99.9,-100.00,WNW,301,7.0,15.0,52,0.00,,,0.00,746.000000,,2013-08-19 16:25:00,
2013-08-19 13:04:00,77.0,58.0,-100.00,WNW,301,7.0,15.0,52,0.00,,,0.00,746.000000,,2013-08-19 17:04:00,
2013-08-19 13:13:00,77.0,58.0,-100.00,WNW,301,7.0,15.0,52,0.00,,,0.00,746.000000,,2013-08-19 17:13:00,
2013-08-19 13:25:00,78.0,59.0,-100.00,WNW,295,6.0,18.0,52,0.00,,,0.00,728.000000,,2013-08-19 17:25:00,
2013-08-19 13:57:00,78.0,59.0,-100.00,WNW,295,6.0,18.0,52,0.00,,,0.00,728.000000,,2013-08-19 17:57:00,
2013-08-19 14:05:00,78.0,59.0,-100.00,WNW,295,6.0,18.0,52,0.00,,,0.00,728.000000,,2013-08-19 18:05:00,
2013-08-19 14:19:00,78.0,59.0,-100.00,WNW,295,6.0,18.0,52,0.00,,,0.00,728.000000,,2013-08-19 18:19:00,
2013-08-19 14:25:00,-999.0,-99.9,-100.00,West,280,6.0,15.0,52,0.00,,,0.00,561.000000,,2013-08-19 18:25:00,
2013-08-19 14:50:00,-999.0,-99.9,-100.00,West,280,6.0,15.0,52,0.00,,,0.00,561.000000,,2013-08-19 18:50:00,
2013-08-19 15:00:00,-999.0,-99.9,-100.00,West,280,6.0,15.0,52,0.00,,,0.00,561.000000,,2013-08-19 19:00:00,
2013-08-19 15:07:00,78.0,59.0,-100.00,West,280,6.0,15.0,52,0.00,,,0.00,561.000000,,2013-08-19 19:07:00,
2013-08-19 15:16:00,78.0,59.0,-100.00,West,280,6.0,15.0,52,0.00,,,0.00,561.000000,,2013-08-19 19:16:00,
2013-08-19 15:25:00,80.0,-99.9,-100.00,WNW,288,6.0,17.0,50,0.00,,,0.00,701.000000,,2013-08-19 19:25:00,
2013-08-19 15:59:00,80.0,60.0,-100.00,WNW,288,6.0,17.0,50,0.00,,,0.00,701.000000,,2013-08-19 19:59:00,
2013-08-19 16:08:00,80.0,60.0,-100.00,WNW,288,6.0,17.0,50,0.00,,,0.00,701.000000,,2013-08-19 20:08:00,
2013-08-19 16:20:00,80.0,60.0,-100.00,WNW,288,6.0,17.0,50,0.00,,,0.00,701.000000,,2013-08-19 20:20:00,
2013-08-19 16:25:00,78.0,59.0,-100.00,WNW,284,6.0,17.0,53,0.00,,,0.00,541.000000,,2013-08-19 20:25:00,
2013-08-19 17:00:00,-999.0,-99.9,-100.00,WNW,284,6.0,17.0,-999,-99.99,,,-99.99,541.000000,,2013-08-19 21:00:00,
2013-08-19 17:09:00,78.0,59.0,-100.00,WNW,284,6.0,17.0,53,0.00,,,0.00,541.000000,,2013-08-19 21:09:00,
2013-08-19 17:16:00,78.0,59.0,-100.00,WNW,284,6.0,17.0,53,0.00,,,0.00,541.000000,,2013-08-19 21:16:00,
2013-08-19 17:25:00,77.0,59.0,-100.00,WNW,292,5.0,15.0,54,0.00,,,0.00,383.000000,,2013-08-19 21:25:00,
2013-08-19 17:55:00,77.0,59.0,-100.00,WNW,292,5.0,15.0,54,0.00,,,0.00,383.000000,,2013-08-19 21:55:00,
2013-08-19 18:06:00,77.0,59.0,-100.00,WNW,292,5.0,15.0,54,0.00,,,0.00,383.000000,,2013-08-19 22:06:00,
2013-08-19 18:25:00,74.0,58.0,-100.00,WNW,283,5.0,12.0,57,0.00,,,0.00,221.000000,,2013-08-19 22:25:00,
2013-08-19 18:55:00,74.0,58.0,-100.00,WNW,283,5.0,12.0,57,0.00,,,0.00,221.000000,,2013-08-19 22:55:00,
2013-08-19 19:05:00,74.0,58.0,-100.00,WNW,283,5.0,12.0,57,0.00,,,0.00,221.000000,,2013-08-19 23:05:00,
2013-08-19 19:15:00,74.0,58.0,-100.00,WNW,283,5.0,12.0,57,0.00,,,0.00,221.000000,,2013-08-19 23:15:00,
2013-08-19 19:55:00,70.0,58.0,-100.00,WNW,286,2.0,9.0,66,0.00,,,0.00,73.000000,,2013-08-19 23:55:00,
2013-08-19 20:02:00,70.0,58.0,-100.00,WNW,286,2.0,9.0,66,0.00,,,0.00,73.000000,,2013-08-20 00:02:00,
2013-08-19 20:11:00,70.0,58.0,-100.00,WNW,286,2.0,9.0,66,0.00,,,0.00,73.000000,,2013-08-20 00:11:00,
2013-08-19 20:24:00,70.0,58.0,-100.00,WNW,286,2.0,9.0,66,0.00,,,0.00,73.000000,,2013-08-20 00:24:00,
2013-08-19 20:53:00,62.0,59.0,-100.00,SE,132,2.0,5.0,89,0.00,,,0.00,4.000000,,2013-08-20 00:53:00,
2013-08-19 21:03:00,62.0,59.0,-100.00,SE,132,2.0,5.0,89,0.00,,,0.00,4.000000,,2013-08-20 01:03:00,
2013-08-19 21:11:00,62.0,59.0,-100.00,SE,132,2.0,5.0,89,0.00,,,0.00,4.000000,,2013-08-20 01:11:00,
2013-08-19 21:22:00,62.0,59.0,-100.00,SE,132,2.0,5.0,89,0.00,,,0.00,4.000000,,2013-08-20 01:22:00,
2013-08-19 21:52:00,61.0,59.0,-100.00,SE,140,2.0,3.0,94,0.00,,,0.00,0.000000,,2013-08-20 01:52:00,
2013-08-19 22:02:00,61.0,59.0,-100.00,SE,140,2.0,3.0,94,0.00,,,0.00,0.000000,,2013-08-20 02:02:00,
2013-08-19 22:11:00,61.0,59.0,-100.00,SE,140,2.0,3.0,94,0.00,,,0.00,0.000000,,2013-08-20 02:11:00,
2013-08-19 22:21:00,61.0,59.0,-100.00,SE,140,2.0,3.0,94,0.00,,,0.00,0.000000,,2013-08-20 02:21:00,
2013-08-19 22:52:00,60.0,59.0,-100.00,ESE,119,3.0,3.0,96,0.00,,,0.00,0.000000,,2013-08-20 02:52:00,
2013-08-19 23:02:00,60.0,59.0,-100.00,ESE,119,3.0,3.0,96,0.00,,,0.00,0.000000,,2013-08-20 03:02:00,
2013-08-19 23:11:00,60.0,59.0,-100.00,ESE,119,3.0,3.0,96,0.00,,,0.00,0.000000,,2013-08-20 03:11:00,
2013-08-19 23:22:00,60.0,59.0,-100.00,ESE,119,3.0,3.0,96,0.00,,,0.00,0.000000,,2013-08-20 03:22:00,
2013-08-19 23:54:00,59.0,58.0,-100.00,ESE,122,3.0,3.0,97,0.00,,,0.00,0.000000,,2013-08-20 03:54:00,